Location: Mele
(44.4500°N, 8.7500°E)
Time: 08:46:06
(UTC+00:00)

Daily predictions for brighter satellites

Satellite Brightness Start Highest point End
(mag) Time Altitude Azimuth Time Altitude Azimuth Time Altitude Azimuth
STARLINK-1082 3.8 19:31:20 10° NW 19:35:29 72° NNE 19:39:37 10° ESE
USA 186 3.8 19:34:47 10° SSW 19:36:52 21° W 19:39:05 10° NW
STARLINK-1203 3.8 19:33:06 10° WSW 19:37:18 81° NW 19:41:32 10° NE
Lacrosse 5 1.9 19:32:20 10° NW 19:37:26 85° NE 19:42:30 10° SE
STARLINK-1216 3.8 19:33:29 10° WSW 19:37:37 81° NW 19:41:47 10° NE
Meteor 1-19 Rocket 4.5 19:32:02 10° SSW 19:37:42 82° WNW 19:43:34 10° N
STARLINK-1100 3.7 19:36:18 10° NW 19:40:27 77° NNE 19:44:35 10° ESE
ISS -3.7 19:37:08 10° WNW 19:40:31 86° SSW 19:43:52 10° ESE
COSMOS 2406 3.8 19:36:36 10° NNW 19:42:16 58° WSW 19:47:51 10° S
STARLINK-1237 3.9 19:38:28 10° WSW 19:42:36 76° NNW 19:46:46 10° NE
Cosmos 1975 3.3 19:38:55 10° NNW 19:42:55 63° W 19:46:53 10° S
CZ-2C R/B 2.8 19:38:16 10° NNE 19:43:55 88° ESE 19:49:31 10° SSW
STARLINK-1083 3.7 19:41:17 10° NW 19:45:27 83° NNE 19:49:35 10° ESE
Meteor 2-4 Rocket 3.6 19:41:23 10° S 19:46:43 76° E 19:52:05 10° NNE
STARLINK-1202 4.0 19:43:28 10° WSW 19:47:36 70° NNW 19:51:45 10° NE
NOSS 2-2 (E) 4.3 19:45:36 10° S 19:48:27 23° ESE 19:51:30 10° ENE
EXPRESS MD2 3.3 19:46:51 10° SSW 19:49:27 43° SE 19:53:52 10° ENE
STARLINK-1125 3.6 19:46:16 10° WNW 19:50:26 89° NE 19:54:31 10° SE
Cosmos 2297 4.3 19:48:09 10° S 19:53:17 37° ESE 19:58:29 10° NE
Cosmos 1833 Rocket 2.9 19:48:09 10° NNW 19:53:46 72° WSW 19:59:21 10° SSE
Cosmos 1943 Rocket 3.7 19:50:43 10° SE 19:54:00 16° E 19:57:19 10° ENE
STARLINK-1109 3.6 19:51:16 10° WNW 19:55:25 85° SW 19:59:18 12° SE
STARLINK-1246 4.2 19:53:30 10° WSW 19:57:36 61° NNW 20:01:43 10° NE
IGS 5A 4.4 19:55:29 11° SE 19:59:07 34° ENE 20:02:54 10° N
Cosmos 1420 Rocket 4.3 19:54:28 10° SSW 19:59:40 73° WNW 20:04:52 10° NNE
Cosmos 1452 Rocket 3.5 19:54:39 10° SSW 19:59:55 80° ESE 20:05:14 10° NNE
Cosmos 332 Rocket 3.8 19:55:24 10° S 20:00:14 63° ESE 20:05:05 10° NNE
STARLINK-1091 3.6 19:56:13 10° WNW 20:00:22 79° SW 20:04:04 13° SE
Cosmos 2082 Rocket 2.3 19:54:42 10° NNW 20:00:28 81° ENE 20:06:02 11° SSE
BREEZE-M DEB 3.2 19:58:39 10° SSW 20:00:30 23° SE 20:03:18 10° ENE
Landsat 7 4.5 19:57:48 11° SE 20:02:07 41° ENE 20:06:35 10° N
STARLINK-1224 4.4 19:58:30 10° WSW 20:02:35 57° NNW 20:06:41 10° NE
Intercosmos 24 3.7 19:59:47 10° N 20:03:19 66° E 20:07:13 10° SSE
STARLINK-1072 3.7 20:01:13 10° WNW 20:05:22 73° SW 20:08:52 14° SE
Cosmos 1461 2.9 20:02:33 10° SSW 20:06:36 63° ESE 20:10:54 10° NE
STARLINK-1225 4.5 20:03:31 10° WSW 20:07:35 54° NNW 20:11:40 10° NE
Okean 3 3.9 20:04:30 10° SSW 20:08:46 68° W 20:13:05 10° N
Cosmos 2369 Rocket 3.8 20:07:22 12° SE 20:09:54 16° E 20:13:13 10° ENE
STARLINK-1096 3.7 20:06:13 10° WNW 20:10:20 67° SW 20:13:39 15° SE
SAR-Lupe-2 4.1 20:08:36 10° NNE 20:12:02 40° E 20:15:09 12° S
NOSS 2-2 (C) 3.8 20:09:45 10° S 20:12:57 32° ESE 20:16:21 10° NE
STARLINK-1079 3.8 20:11:12 10° WNW 20:15:17 61° SW 20:18:26 16° SE
Cosmos 2221 Rocket 4.2 20:12:11 10° SSW 20:16:39 62° W 20:21:11 10° N
ATLAS 2AS CENTAUR R/B 4.4 20:13:12 13° SE 20:16:47 17° ESE 20:21:33 10° ENE
SL-4 R/B 3.0 20:15:33 10° NW 20:18:04 24° WSW 20:20:26 10° S
SPOT 5 4.0 20:14:18 13° SE 20:18:17 34° ENE 20:23:04 10° N
Meteor 1-13 Rocket 4.3 20:14:37 10° S 20:20:14 86° W 20:26:02 10° N
STARLINK-1116 3.9 20:16:11 10° WNW 20:20:16 56° SW 20:23:13 18° SE
STARLINK-1103 4.4 20:18:28 10° NW 20:22:30 47° NNE 20:26:14 12° E
ERS-1 Rocket 3.6 20:19:40 15° SE 20:23:25 41° ENE 20:28:09 10° N
STARLINK-1101 4.3 20:23:26 10° NW 20:27:30 50° NNE 20:31:00 13° E
Cosmos 1066 Rocket 4.2 20:22:39 10° S 20:27:55 58° E 20:33:10 10° NNE
USA 245 2.4 20:27:56 20° SSE 20:29:52 82° ENE 20:32:27 10° NNW
STARLINK-1094 4.2 20:26:12 10° WNW 20:30:11 47° SW 20:32:47 20° SSE
USA 238 DEB 4.5 20:25:11 10° NNW 20:32:08 49° NE 20:38:25 14° ESE
USA 238 4.5 20:25:17 10° NNW 20:32:14 49° NE 20:38:32 14° ESE
STARLINK-1102 4.2 20:28:25 10° NW 20:32:30 53° NNE 20:35:48 15° ESE
Cosmos 2278 Rocket 4.0 20:27:54 10° WSW 20:33:04 35° NW 20:38:17 10° N
TSX-5 4.5 20:27:23 10° SSW 20:33:11 82° WNW 20:37:37 10° NNE
Resurs 01 Rocket 2.8 20:29:12 10° SSW 20:33:21 39° W 20:37:32 10° NNW
Nadezhda 4 Rocket 4.0 20:28:28 11° S 20:34:21 61° E 20:40:23 10° NNE
Okean 1 Rocket 3.2 20:30:31 10° N 20:34:57 61° E 20:37:54 20° SSE
STARLINK-1117 4.3 20:31:13 10° WNW 20:35:09 43° SW 20:37:34 20° SSE
Cosmos 1805 4.1 20:31:32 10° N 20:35:11 35° ENE 20:37:07 22° SE
GPS 2-04 Rocket1 4.0 20:32:57 10° SW 20:35:31 19° S 20:35:57 19° S
Okean 2 Rocket 4.3 20:31:26 10° NNW 20:35:34 40° W 20:39:40 10° SSW
Cosmos 1741 Rocket 4.2 20:30:24 10° NNW 20:35:37 72° WSW 20:39:49 16° S
MetOp-B 4.4 20:32:02 11° S 20:37:07 67° WSW 20:42:28 10° NNW
STARLINK-1111 4.1 20:33:23 10° NW 20:37:29 57° NNE 20:40:34 17° ESE
STARLINK-1078 4.4 20:36:13 10° WNW 20:40:06 39° SW 20:42:21 21° SSE
SL-8 R/B 3.8 20:37:37 10° WNW 20:42:26 78° NNE 20:46:16 16° ESE
STARLINK-1073 4.0 20:38:22 10° NW 20:42:28 61° NNE 20:45:22 19° ESE
SL-4 R/B 3.1 20:42:31 10° SSW 20:46:40 31° SE 20:50:54 10° ENE
Cosmos 1110 Rocket 3.9 20:41:40 10° SSW 20:46:51 81° ESE 20:52:03 10° NNE
Terra 2.5 20:44:22 21° SE 20:47:05 41° ENE 20:51:34 10° N
ATLAS 3B CENTAUR R/B 4.0 20:35:48 10° WSW 20:47:06 28° S 20:50:57 20° SSE
STARLINK-1121 3.9 20:43:20 10° NW 20:47:27 65° NNE 20:50:08 21° ESE
Spot 2 Rocket 3.8 20:44:03 14° S 20:48:17 63° WSW 20:53:18 10° NNW
SPOT 1/Viking Rocket 3.5 20:45:17 18° SSE 20:49:08 86° WSW 20:54:19 10° NNW
Cosmos 1842 4.4 20:48:51 23° ESE 20:49:51 26° E 20:53:07 10° NNE
CARTOSAT-1 3.6 20:47:49 24° SSE 20:50:18 66° ENE 20:54:36 10° N
Abrixas rocket 1.8 20:47:58 10° WNW 20:50:55 78° SSW 20:51:50 39° SE
STARLINK-1106 3.8 20:48:19 10° NW 20:52:28 70° NNE 20:54:56 23° ESE
STARLINK-1112 3.7 20:53:16 10° NW 20:57:25 75° NNE 20:59:42 26° ESE
Aureole 2 4.5 20:56:36 10° NNW 20:59:37 54° WSW 21:00:36 34° SSW
STARLINK-1128 3.6 20:58:15 10° NW 21:02:25 81° NE 21:04:28 29° ESE
Cosmos 1331 Rocket 4.0 20:58:30 10° SSW 21:03:39 81° WNW 21:08:52 10° NNE
Aureole 2 Rocket 4.0 21:01:48 10° SW 21:04:36 29° WNW 21:07:16 10° N
STARLINK-1113 3.5 21:03:14 10° NW 21:07:24 87° NE 21:09:15 32° ESE
Cosmos 1733 3.4 21:04:34 10° N 21:08:20 56° E 21:09:32 37° SE
COSMOS 2455 4.3 21:09:44 18° ESE 21:10:12 18° ESE 21:14:06 10° ENE
Cosmos 1378 3.2 21:09:41 25° SSW 21:11:44 74° W 21:15:27 10° N
STARLINK-1119 3.5 21:08:14 10° WNW 21:12:24 87° SSW 21:14:04 35° SE
Cosmos 1302 Rocket 4.0 21:10:14 21° S 21:13:44 67° ESE 21:19:01 10° NNE
Cosmos 1271 Rocket 4.1 21:14:22 23° E 21:14:33 23° E 21:17:40 10° NE
Cosmos 1242 Rocket 3.5 21:15:26 31° ESE 21:15:41 32° E 21:19:00 10° NNE
ISS -1.4 21:15:16 10° WSW 21:16:49 13° SW 21:17:02 13° SW
Cosmos 1544 Rocket 4.4 21:13:20 10° N 21:17:21 35° ENE 21:18:39 29° ESE
STARLINK-1114 3.5 21:13:11 10° WNW 21:17:21 81° SSW 21:18:49 39° SE
STARLINK-60 4.2 21:20:10 27° ENE 21:20:10 27° ENE 21:21:51 10° ENE
MTI 3.8 21:15:42 10° NNE 21:18:48 55° ESE 21:18:58 54° ESE
Lacrosse 5 3.8 21:16:28 10° W 21:19:49 18° WSW 21:22:07 14° SSW
Cosmos 1092 Rocket 3.9 21:15:31 21° S 21:19:51 85° E 21:26:02 10° N
NOSS 2-2 (D) 4.1 21:17:52 10° SW 21:21:20 48° NW 21:25:12 10° NNE
STARLINK-1130 (DARKSAT) 3.5 21:18:11 10° WNW 21:22:19 75° SW 21:23:37 42° SE
Cosmos 1707 4.2 21:24:35 23° E 21:24:40 23° E 21:27:46 10° NE
CENTAUR R/B 3.5 21:16:57 10° NNW 21:24:51 60° NE 21:31:08 20° ESE
STARLINK-1084 3.6 21:23:10 10° WNW 21:27:18 69° SW 21:28:24 46° SSE
ATLAS 3B R/B 4.0 21:21:43 10° NNW 21:27:46 33° NE 21:33:57 10° E
SL-27 R/B 2.6 21:25:19 10° NNW 21:28:53 62° ENE 21:29:28 52° ESE
NOSS 3-2 (C) 4.2 21:22:37 10° NW 21:30:07 69° NE 21:35:37 24° SE
Cosmos 1766 3.7 21:27:23 10° NNW 21:31:19 57° W 21:32:47 34° SSW
STARLINK-1098 3.6 21:28:10 10° WNW 21:32:16 63° SW 21:33:11 48° SSE
Cosmos 1726 4.2 21:29:56 10° NNE 21:32:20 16° ENE 21:32:50 16° E
Cosmos 1627 Rocket 4.5 21:30:05 25° S 21:34:02 86° E 21:40:28 10° N
Cosmos 1943 Rocket 2.3 21:31:46 11° SSW 21:37:02 75° WNW 21:42:39 10° NNE
STARLINK-1123 3.7 21:33:08 10° WNW 21:37:13 58° SW 21:37:56 49° S
Cosmos 1992 Rocket 4.5 21:36:08 36° SE 21:37:21 42° ESE 21:42:14 10° NE
NOSS 3-4 (A) 3.7 21:36:31 33° SSE 21:38:33 45° ESE 21:44:26 10° NE
NOSS 3-4 (C) 3.7 21:36:40 33° SSE 21:38:40 44° ESE 21:44:32 10° NE
Cosmos 1428 Rocket 4.4 21:36:33 28° S 21:40:09 83° E 21:46:27 10° N
STARLINK-1097 3.8 21:38:10 10° WNW 21:42:13 53° SW 21:42:45 49° S
Cosmos 546 4.5 21:39:46 10° WNW 21:43:38 76° SSW 21:44:08 63° SSE
Cosmos 2082 Rocket 4.4 21:40:35 10° WNW 21:43:46 15° W 21:46:56 10° SW
SeaSat 1 3.0 21:39:30 10° NE 21:44:03 36° ESE 21:44:35 35° SE
EO 1 Del DPAF 4.0 21:41:06 10° NNE 21:44:29 36° E 21:44:29 36° E
Cosmos 1975 Rocket 3.5 21:44:36 29° SSW 21:46:44 59° W 21:51:06 10° N
STARLINK-1099 3.9 21:43:10 10° WNW 21:47:10 48° SW 21:47:31 47° SSW
Cosmos 292 Rocket 3.7 21:48:20 36° SSW 21:50:19 87° ESE 21:55:13 10° NNE
BREEZE-M DEB (TANK) 3.9 21:36:18 10° WSW 21:51:15 70° NNW 21:55:07 10° ENE
STARLINK-1104 4.0 21:48:09 10° WNW 21:52:07 44° SW 21:52:18 44° SSW
BREEZE-M DEB (TANK) 4.0 21:48:51 10° WNW 21:52:34 43° N 21:56:18 10° E
Cosmos 2369 Rocket 2.3 21:49:04 19° SSW 21:53:12 78° WNW 21:58:53 10° NNE
STARLINK-1217 4.4 21:52:20 10° NW 21:55:12 32° NNE 21:56:00 27° NE
S3M 4.3 21:49:39 10° N 21:55:43 56° ENE 21:58:11 35° SE
STARLINK-1229 4.4 21:53:15 10° NW 21:56:07 32° NNE 21:56:54 28° NE
SPOT 5 4.2 21:53:31 21° SW 21:56:15 35° W 22:01:08 10° NNW
STARLINK-1270 4.4 21:54:08 10° NW 21:57:01 33° NNE 21:57:45 28° NE
STARLINK-1144 4.2 21:53:11 10° WNW 21:57:05 41° SW 21:57:05 41° SW
STARLINK-1189 4.3 21:55:55 10° NW 21:58:48 33° NNE 21:59:29 30° NE
ATLAS CENTAUR R/B 2.0 21:59:35 41° ESE 21:59:35 41° ESE 22:03:08 10° NE
Aureole 3 Rocket 4.4 21:53:05 10° N 21:59:29 89° E 22:03:53 32° S
STARLINK-1188 4.3 21:56:50 10° NW 21:59:44 34° NNE 22:00:22 30° NE
STARLINK-1187 4.1 21:57:54 10° NW 22:00:50 37° NNE 22:01:14 35° NE
STARLINK-1103 4.4 21:58:11 10° WNW 22:01:51 37° SW 22:01:51 37° SW
Cosmos 1340 Rocket 3.8 21:58:19 10° N 22:02:03 34° ENE 22:02:31 33° E
STARLINK-1191 4.2 21:59:16 10° NW 22:02:10 35° NNE 22:02:39 32° NE
STARLINK-1221 4.2 22:00:13 10° NW 22:03:07 35° NNE 22:03:34 33° NE
Cosmos 1025 Rocket 2.9 22:02:58 60° SSE 22:03:34 70° E 22:07:51 10° NNE
STARLINK-1222 4.2 22:01:04 10° NW 22:03:58 35° NNE 22:04:23 34° NE
Cosmos 2026 Rocket 4.4 22:00:23 23° SSW 22:04:22 61° W 22:10:41 10° N
STARLINK-1214 4.1 22:01:57 10° NW 22:04:53 36° NNE 22:05:15 34° NE
Thor Agena Rocket 3.5 22:00:15 10° NNE 22:05:34 73° ESE 22:07:12 45° S
ATLAS 2AS CENTAUR R/B 3.0 22:00:30 19° SSW 22:06:36 76° ESE 22:14:34 10° NE
Cosmos 1656 Rocket 3.6 22:04:50 41° S 22:06:50 71° ESE 22:12:24 10° NNE
BREEZE M DEB (TANK) 3.8 22:04:52 10° W 22:07:45 30° NNW 22:08:33 23° NNE
Cosmos 1553 Rocket 3.9 22:02:57 10° N 22:09:16 87° W 22:11:43 40° S
BREEZE-M DEB (TANK) 3.8 21:57:55 10° WNW 22:10:15 90° N 22:11:56 39° ESE
Cosmos 1953 2.6 22:06:33 10° N 22:10:27 50° ENE 22:10:41 49° E
STARLINK-1228 3.7 22:07:21 10° NW 22:10:48 54° NNE 22:11:08 51° NE
APEX 4.4 22:06:47 20° SW 22:11:24 75° WNW 22:16:49 10° NNE
NOSS 3-2 (A) 4.4 22:03:56 10° NW 22:11:24 56° WSW 22:15:11 33° S
Cosmos 1470 2.8 22:07:40 10° NNW 22:11:32 65° W 22:11:51 62° SW
Cosmos 2292 Rocket 4.2 22:13:24 33° ENE 22:13:24 33° ENE 22:15:54 10° NNE
STARLINK-1235 3.6 22:10:04 10° NW 22:13:12 51° NNE 22:13:12 51° NNE
Cosmos 968 Rocket 3.5 22:11:08 10° NNW 22:16:15 71° WSW 22:17:31 49° S
Cosmos 1655 Rocket 3.9 22:15:01 41° S 22:17:22 78° E 22:23:39 10° N
Cosmos 1455 Rocket 4.1 22:14:23 10° NNW 22:18:20 35° W 22:19:25 30° WSW
SL-4 R/B 3.9 22:20:18 12° NNE 22:20:18 12° NNE 22:20:38 10° NNE
ATLAS 5 CENTAUR R/B 1.5 22:21:46 87° SW 22:21:50 89° ENE 22:24:16 10° NE
USA 238 DEB 4.4 22:16:18 10° NW 22:23:07 45° WSW 22:25:51 33° SSW
USA 238 4.4 22:16:23 10° NW 22:23:14 46° WSW 22:25:58 33° SSW
Terra 3.5 22:23:15 19° SW 22:24:58 23° W 22:28:46 10° NW
Cosmos 1758 3.7 22:21:03 10° NNW 22:25:01 54° W 22:25:25 51° WSW
SL-4 R/B 2.6 22:21:23 10° WSW 22:26:11 69° NNW 22:31:02 10° ENE
Cosmos 2228 4.1 22:24:20 10° N 22:28:09 31° ENE 22:28:36 31° E
STARLINK-1234 3.9 22:27:47 10° NW 22:30:17 48° NW 22:30:17 48° NW
In-Cosmos 22 4.0 22:30:05 53° SSE 22:31:15 71° E 22:36:31 10° NNE
Cosmos 2266 Rocket 3.9 22:33:43 46° S 22:35:39 79° E 22:41:43 10° N
Cosmos 1503 Rocket 4.1 22:31:08 10° NNW 22:36:25 66° WSW 22:37:35 51° SSW
STARLINK-1209 4.1 22:33:57 10° NW 22:36:14 41° NW 22:36:14 41° NW
SJ 16-02 4.1 22:42:59 10° NE 22:43:59 11° NE 22:44:59 10° ENE
Cosmos 1536 Rocket 4.2 22:45:44 40° WSW 22:46:35 45° WNW 22:50:48 10° N
Cosmos 1674 3.0 22:48:20 56° ENE 22:48:20 56° ENE 22:51:38 10° NNE
Meteor 2-15 Rocket 4.5 22:42:52 10° N 22:49:02 71° E 22:50:55 45° SSE
Cosmos 1271 Rocket 4.4 22:49:29 24° W 22:50:25 26° WNW 22:53:47 10° NNW
Spot 4 4.4 22:53:29 43° SW 22:54:14 46° W 22:58:55 10° NNW
COSMOS 2455 2.9 22:52:50 36° SW 22:55:24 79° WNW 23:01:28 10° NNE
Cosmos 1354 Rocket 4.4 22:50:34 10° NNW 22:55:42 50° WSW 22:56:35 45° SW
Cosmos 883 Rocket 4.4 22:50:59 10° N 22:57:09 83° W 22:58:57 49° S
USA 215 3.4 22:52:57 19° ESE 22:57:49 73° NE 23:04:22 10° NW
Cosmos 1707 4.4 22:59:44 24° W 23:00:25 26° WNW 23:03:44 10° NNW
STARLINK-1205 4.5 22:57:23 10° NW 23:01:25 48° NNE 23:03:07 29° E
Helios 1A 3.1 23:01:35 59° E 23:01:52 61° ENE 23:06:00 10° N
Cosmos 2297 Rocket 3.8 22:58:12 10° N 23:03:03 28° NE 23:07:00 14° ESE
Lacrosse 4 Rocket 4.5 23:05:02 10° NNE 23:06:13 11° NE 23:07:24 10° NE
STARLINK-1218 4.4 23:02:22 10° NW 23:06:26 51° NNE 23:07:55 33° E
Cosmos 1174 4.5 23:06:36 39° NW 23:06:41 39° NW 23:10:13 10° NNE
Cosmos 1726 3.3 23:04:16 10° NNW 23:07:20 34° W 23:07:20 34° W
ALOS 2 2.6 23:07:48 63° WSW 23:07:59 63° W 23:12:21 10° NNW
Timation 2 Rocket 4.0 23:04:23 10° NNW 23:10:43 74° ENE 23:12:55 42° SE
STARLINK-1254 4.2 23:07:20 10° NW 23:11:25 54° NNE 23:12:41 38° E
COSMOS 2487 3.9 23:08:15 10° NW 23:10:32 30° WNW 23:10:32 30° WNW
Cosmos 2058 Rocket 3.6 23:07:10 10° N 23:11:30 48° ENE 23:11:58 46° E
Meteor 2-5 Rocket 3.6 23:14:12 56° SSE 23:15:23 76° E 23:21:01 10° NNE
CENTAUR R/B 3.8 23:07:57 10° NW 23:15:34 42° WSW 23:18:17 34° SSW
STARLINK-1231 4.1 23:12:17 10° NW 23:16:24 58° NNE 23:17:27 43° E
STARLINK-1378 4.4 23:18:29 38° ENE 23:18:29 38° ENE 23:20:58 10° ENE
Cosmos 1867 4.2 23:13:28 10° NW 23:18:30 39° WSW 23:18:45 38° WSW
SL-14 R/B 3.9 23:19:11 46° ENE 23:19:11 46° ENE 23:22:30 10° NNE
ATLAS 3B R/B 2.7 23:12:11 10° NW 23:18:57 69° WSW 23:21:09 45° S
FALCON 9 DEB 4.0 23:20:07 48° N 23:20:07 48° N 23:23:14 10° NE
STARLINK-1379 4.3 23:21:51 42° ENE 23:21:51 42° ENE 23:24:29 10° ENE
STARLINK-1232 4.0 23:17:17 10° NW 23:21:24 62° NNE 23:22:15 49° E
SeaSat 1 3.8 23:17:04 10° NNE 23:21:31 35° NW 23:24:21 19° WSW
Cosmos 1606 Rocket 3.5 23:17:13 10° NNW 23:21:31 66° W 23:21:36 66° WSW
STARLINK-1329 4.2 23:23:14 44° ENE 23:23:14 44° ENE 23:25:57 10° ENE
Meteor 2-21 4.4 23:20:59 49° SSE 23:22:42 75° E 23:28:54 10° NNE
Cosmos 2098 Rocket 4.4 23:20:08 40° SSW 23:22:59 72° W 23:30:30 10° N
STARLINK-1362 4.0 23:26:40 49° ENE 23:26:40 49° ENE 23:29:32 10° ENE
STARLINK-1208 3.9 23:22:14 10° NW 23:26:22 66° NNE 23:27:00 56° E
ATLAS CENTAUR R/B 3.4 23:26:47 10° NNW 23:28:51 24° NE 23:32:20 10° E
STARLINK-1373 3.9 23:30:06 54° NE 23:30:06 54° NE 23:33:07 10° ENE
RESURS DK-1 2.5 23:29:48 61° W 23:30:01 62° WNW 23:34:09 10° NNE
STARLINK-1365 3.8 23:31:12 59° NE 23:31:12 59° NE 23:34:22 10° NE
STARLINK-1271 3.7 23:27:14 10° NW 23:31:23 71° NNE 23:31:49 64° ENE
STARLINK-1390 3.8 23:33:34 59° NE 23:33:34 59° NE 23:36:44 10° NE
Cosmos 1697 Rocket 4.3 23:32:47 20° ESE 23:33:46 20° E 23:37:49 10° NE
Cosmos 2084 3.6 23:33:36 61° W 23:34:11 71° NW 23:38:40 10° NE
Cosmos 2315 Rocket 4.3 23:29:15 10° NNW 23:35:15 53° W 23:36:59 41° SW
Cosmos 1626 2.3 23:36:00 67° NNE 23:36:00 67° NNE 23:39:17 10° N
BREEZE-M R/B 3.4 23:31:45 25° SW 23:36:02 77° SSE 23:39:56 10° ENE
STARLINK-1154 3.6 23:32:13 10° NW 23:36:22 77° NNE 23:36:35 74° ENE
Okean 1-7 Rocket 3.4 23:37:39 77° SSW 23:37:58 85° W 23:42:31 10° N
ATLAS CENTAUR R/B 3.3 23:35:42 16° W 23:38:11 25° NW 23:41:39 10° NNE
Cosmos 2227 Rocket 3.1 23:34:45 10° NNW 23:40:12 44° ENE 23:43:30 22° ESE
STARLINK-1197 3.6 23:37:10 10° NW 23:41:21 82° NE 23:41:21 82° NE
Nadezhda 2 Rocket 4.5 23:39:44 47° SSW 23:41:34 73° W 23:47:43 10° N
CZ-4 R/B 3.7 23:38:33 10° NNE 23:43:18 68° ESE 23:43:50 62° SE
STARLINK-1198 3.5 23:42:08 10° NW 23:46:07 82° NW 23:46:07 82° NW
Cosmos 1602 Rocket 4.3 23:47:23 37° ESE 23:47:43 38° E 23:51:44 10° NNE
Landsat 4 4.4 23:47:31 10° N 23:51:00 45° WNW 23:51:00 45° WNW
STARLINK-1199 3.6 23:47:09 10° WNW 23:50:56 73° WNW 23:50:56 73° WNW
Meteor 2-21 Rocket 4.4 23:50:06 48° SSW 23:51:57 85° W 23:58:11 10° N
